STARLINK-30166 (57602 NORAD) Tracking and Keplerian Element Data

This shows tracking and keplerian element data for the satellite.

Feedback or suggestion? Click here.




ElementValue
Catalog57602
NameSTARLINK-30166
Epoch Orbit2470
Epoch Day13.13696373
Epoch Year2024
RAAN35.8836
Inclination43.0037
Eccentricity8.99E-05
Argument of Perigee243.7814
Mean Anonmoly116.2936
Mean Motion15.02527102
Decay Rate0.00011184
L11 57602U 23119A 24013.13696373 .00011184 00000+0 84188-3 0 9990
L22 57602 43.0037 35.8836 0000899 243.7814 116.2936 15.02527102 24703



Live tracking and technical data element details for STARLINK-30166 (NORAD 57602). STARLINK-30166 can be tracked NOW for your location showing map with azimuth and elevation plus other details from your city location.







IsCatalogInMostPopularTable: catalog: 57602, numindb: 25
Update: records affected: 1



GetName: 57602 STARLINK-30166

Hit Count: updated at: Thu, 29 Feb 2024 11:25:05 GMT